SCP
1 1 2 2 3 3 2 2 1 1 1 1 1 1 1 1 0 0 0 0 0 0 0 0 0 0 0 0 0 0 0 -0 -0 0 0 0 0 0 0 0 0 0 0
2 2 2 2 2 2 1 1 1 1 1 0 1 0 0 0 0 0 0 0 0 0 0 0 0 0 0 0 0 0 0 0 0 0 0 0 0 0 0 0 0 0 0
2 2 1 1 1 1 1 1 1 1 0 0 0 0 0 0 0 0 0 0 0 0 0 0 0 0 0 0 0 0 0 0 0 0 0 0 0 0 0 0 0 0 0
1 1 1 1 1 1 0 0 0 0 0 0 0 0 0 0 0 0 0 0 0 0 0 0 0 0 0 0 0 0 0 0 0 0 0 0 0 0 0 0 0 0 0
0 0 1 0 0 0 0 0 0 0 0 0 0 0 0 0 0 0 0 0 0 0 0 0 0 0 0 0 0 0 0 0 0 0 0 0 0 0 0 0 0 0 0
0 0 0 0 0 0 0 0 0 0 0 0 0 0 0 0 0 0 0 0 0 0 0 -0 0 0 0 0 0 -0 0 0 0 0 0 0 0 0 0 0 0 0 0
0 0 0 0 0 0 0 0 0 0 0 0 0 0 0 0 0 0 0 0 0 0 0 0 0 0 -0 0 0 0 0 0 0 0 0 0 0 0 0 0 0 0 0
0 0 0 0 0 0 0 0 0 0 0 0 0 -0 -0 0 0 0 0 0 0 0 0 0 0 0 0 0 0 0 0 0 0 0 0 0 0 0 0 0 0 0 0
0 -0 -0 -0 0 0 0 0 0 0 0 0 0 -0 -0 0 0 0 0 0 0 0 0 0 0 0 0 0 0 0 0 0 0 0 0 -0 0 0 0 0 0 0 0
-0 -0 -0 -0 -0 0 -0 0 0 0 0 0 -0 -0 -0 -0 0 0 0 0 -0 0 0 0 0 0 0 0 0 0 0 0 0 0 0 0 0 0 0 0 0 0 0
-0 -0 -0 -0 -0 -0 -0 0 0 -0 0 0 -0 -0 -0 -0 -0 0 -0 0 0 -0 0 0 0 0 0 0 0 0 0 0 0 0 0 0 0 0 0 0 0 0 0
-0 -0 -0 -0 -0 -0 -0 0 -0 0 0 0 0 -0 -0 -0 -0 -0 -0 0 0 -0 0 0 0 0 0 0 0 0 0 0 0 0 0 0 0 0 0 0 0 0 0
-0 -0 -0 0 -0 -0 -0 -0 0 0 0 0 0 -0 0 -0 -0 -0 -0 0 -0 0 0 0 0 -0 0 0 0 0 0 0 0 0 0 0 0 0 0 0 0 0 -0
-0 -0 -0 -0 -0 -0 0 0 -0 0 0 0 0 0 0 -0 -0 -0 -0 -0 -0 -0 -0 0 0 0 0 0 0 0 0 0 0 0 0 0 0 0 0 0 0 0 -0
-0 -0 -0 -0 -0 -0 0 0 0 0 0 0 0 0 -0 -0 -0 0 0 -0 -0 0 0 0 0 0 0 -0 0 0 0 0 0 0 0 0 0 0 0 0 0 0 0
-0 -0 0 -0 0 -0 -0 0 -0 0 0 0 0 0 -0 -0 -0 -0 -0 -0 -0 -0 0 0 0 0 0 0 0 0 0 0 0 0 -0 0 0 -0 -0 0 0 0 0
0 -0 0 -0 -0 0 0 0 0 0 -0 -0 -0 -0 -0 -0 -0 -0 -0 -0 0 -0 -0 0 0 0 0 0 0 -0 -0 -0 -0 -0 -0 -0 -0 -0 0 0 0 0 0
-0 -0 -0 -0 -0 -0 0 -0 0 -0 0 0 -0 -0 -0 -0 -0 -0 -0 -0 -0 -0 -0 0 -0 -0 -0 0 -0 -0 0 -0 0 0 0 0 -0 -0 -0 0 0 -0 0
-0 -0 -0 -0 -0 0 0 -0 0 -0 0 0 0 0 0 -0 0 -0 0 -0 -0 -0 -0 -0 0 -0 0 0 0 -0 -0 0 0 -0 0 0 0 0 0 0 0 0 -0
0 -0 0 -0 -0 -0 -0 -0 -0 -0 -0 -0 -0 -0 -0 -0 -0 -0 0 0 0 -0 -0 -0 0 0 0 0 -0 -0 -0 -0 -0 -0 -0 -0 -0 0 -0 0 0 -0 0
0 -0 0 0 0 -0 -0 -0 -0 -0 -0 -0 0 0 -0 -0 -0 -0 0 0 0 -0 -0 -0 0 0 0 0 -0 -0 0 -0 0 0 0 0 -0 -0 -0 -0 0 0 0
0 0 0 0 -0 0 -0 -0 -0 -0 -0 0 -0 -0 -0 -0 -0 -0 0 0 -0 0 0 0 0 0 0 0 0 0 0 0 0 0 0 -0 0 0 0 0 0 0 0
0 -0 0 0 -0 -0 0 0 0 -0 0 -0 -0 -0 -0 -0 0 0 0 0 0 0 -0 -0 -0 -0 -0 -0 -0 -0 -0 -0 -0 0 0 -0 -0 0 0 0 0 0 0
0 0 0 0 -0 0 -0 0 0 -0 0 0 0 -0 0 0 -0 -0 -0 -0 -0 -0 -0 -0 -0 -0 -0 -0 -0 -0 -0 0 0 0 0 -0 -0 0 0 0 0 0 0
0 0 0 0 0 0 -0 0 -0 -0 0 -0 0 0 -0 -0 -0 -0 -0 -0 -0 -0 -0 -0 -0 -0 -0 -0 -0 -0 -0 0 0 0 0 0 0 0 0 0 0 0 0
0 0 0 0 0 0 0 0 0 0 0 0 0 0 0 0 0 0 0 -0 -0 -0 -0 0 -0 -0 -0 0 0 0 0 0 0 0 0 0 0 0 0 0 0 0 0
Wind_Speed_500mb
43 44 47 51 49 48 51 46 49 42 39 40 33 28 26 27 22 17 23 28 30 31 28 32 28 21 19 22 25 21 23 22 24 24 23 32 33 35 35 30 37 39 40
49 50 53 55 56 57 49 50 48 47 39 35 28 22 21 20 19 23 24 23 26 28 33 29 30 26 19 22 30 23 15 24 29 37 37 37 33 31 34 40 42 39 41
54 56 56 52 52 53 50 43 42 36 34 31 28 23 21 21 17 12 14 17 27 26 26 25 22 22 20 21 28 23 15 27 31 37 45 42 40 34 41 38 40 42 40
52 55 53 53 52 50 44 41 39 35 32 28 25 26 22 15 8 8 14 18 24 26 28 24 26 23 21 24 28 23 22 26 35 40 41 43 35 30 39 42 43 44 49
56 54 52 50 47 43 40 37 30 31 29 29 26 22 15 14 17 19 20 15 18 20 20 24 25 22 18 21 27 28 24 32 45 36 41 41 35 37 45 47 49 47 48
55 50 46 44 42 39 36 31 33 33 33 28 26 21 18 14 14 12 10 2 7 11 22 25 26 12 17 22 17 20 24 35 38 33 44 42 42 48 47 53 54 57 61
50 45 42 38 34 33 35 37 35 32 31 23 21 21 20 12 5 6 7 7 9 13 20 24 20 14 18 21 17 19 28 28 12 16 45 46 50 48 52 48 49 56 66
43 43 43 37 37 34 38 33 35 30 29 25 23 18 10 5 8 12 11 8 15 16 21 27 18 20 21 23 22 24 26 20 10 11 34 38 39 44 47 51 62 60 58
44 46 38 31 39 35 38 35 32 33 24 24 16 13 6 8 12 14 13 10 16 15 19 23 22 18 20 27 28 32 30 26 16 11 21 30 34 39 55 50 60 62 67
43 42 33 23 35 40 33 32 27 22 22 20 17 13 6 9 14 14 15 8 15 15 17 27 22 19 21 34 28 31 35 34 26 21 33 32 35 41 44 39 56 74 72
44 31 31 46 32 41 36 31 28 25 22 23 19 12 9 9 13 11 9 10 14 17 21 28 24 22 34 35 30 30 33 35 29 28 38 39 40 44 51 43 48 52 54
37 34 37 25 40 35 29 30 30 25 29 23 17 17 11 12 11 12 12 14 16 13 21 28 29 39 37 34 30 26 27 36 32 38 40 48 46 45 36 36 48 46 38
40 38 36 30 46 31 27 25 28 28 26 23 15 13 15 15 11 12 15 15 17 18 22 35 36 39 32 26 22 23 30 33 31 41 44 51 44 34 35 33 34 27 34
40 38 38 34 25 24 22 23 21 21 26 26 25 22 16 18 14 16 16 17 13 23 33 41 38 38 36 30 28 24 31 33 35 41 43 39 42 35 37 36 37 46 44
43 37 36 30 29 26 20 19 17 18 19 21 25 17 14 24 17 18 14 19 27 38 39 39 42 39 41 38 31 26 26 27 31 40 44 45 45 43 44 41 39 39 31
42 38 35 29 25 17 19 23 20 18 17 18 16 14 14 23 20 25 20 18 30 38 39 43 39 42 37 35 27 25 27 30 30 36 39 44 51 53 43 35 33 34 34
43 36 44 33 36 30 23 20 25 22 17 20 20 16 14 30 21 29 23 33 32 29 35 38 40 38 35 35 27 29 33 36 42 45 42 45 43 38 35 32 30 36 27
38 32 33 44 40 36 31 24 18 23 29 30 21 17 30 30 27 32 33 40 34 27 22 26 32 35 38 36 28 28 28 36 36 37 36 36 35 31 28 25 21 21 20
33 24 31 40 38 32 28 28 28 29 24 31 31 34 36 30 32 32 41 36 29 26 22 22 25 33 34 27 28 31 26 31 30 31 33 29 34 34 33 29 34 30 32
28 35 44 41 38 30 33 25 27 31 21 31 33 36 39 36 39 39 36 26 21 21 20 22 24 30 29 28 24 21 24 23 23 25 27 27 34 37 36 42 27 29 39
38 31 40 32 29 37 44 35 34 31 30 31 18 26 32 34 35 38 32 32 23 23 23 19 21 20 22 27 29 26 20 25 19 18 19 22 36 31 30 36 32 35 37
37 35 28 43 40 42 39 39 40 42 40 32 29 36 33 21 30 32 34 30 32 26 15 20 23 23 21 19 17 19 17 15 18 18 20 19 22 30 34 39 39 41 45
30 39 23 24 47 36 39 42 47 49 47 34 46 44 40 25 11 5 9 11 17 19 21 22 31 30 34 35 31 30 36 37 34 22 27 30 30 33 32 37 40 43 47
31 32 30 29 44 46 45 44 58 53 41 37 32 32 32 24 20 26 22 29 34 31 34 15 20 22 25 32 24 19 17 19 16 22 31 31 29 39 41 37 41 44 46
31 50 61 49 61 60 45 52 75 63 52 55 62 56 48 41 39 30 24 22 25 32 27 20 15 9 13 15 18 20 21 21 27 30 33 30 30 34 32 28 26 31 33
37 39 44 42 50 59 65 64 63 67 64 59 56 62 58 51 45 43 38 33 31 25 22 17 14 10 11 14 17 24 28 29 32 35 39 48 51 51 52 53 52 52 54
Wind_Direction_500mb
184 182 182 179 179 179 172 174 171 171 174 173 171 178 191 208 217 218 209 220 231 240 233 230 221 221 217 219 215 223 213 216 200 163 162 161 153 158 171 168 169 170 165
173 173 170 164 168 165 160 165 169 170 166 171 177 187 187 203 216 232 235 238 242 241 236 234 224 250 222 216 207 215 224 207 190 163 154 158 161 162 156 160 169 168 160
171 167 162 164 160 167 167 166 162 161 160 170 175 181 191 191 210 260 257 243 247 249 238 234 249 221 220 213 206 202 197 174 169 176 157 159 165 170 168 166 165 165 159
155 154 154 153 156 158 158 153 159 162 167 169 166 176 188 201 205 254 250 253 254 235 235 240 202 206 221 207 196 189 189 182 171 178 173 169 166 168 170 164 159 163 156
143 148 150 153 153 154 155 160 158 161 161 165 164 168 161 181 209 243 265 262 244 233 234 207 187 194 210 195 194 190 185 174 181 181 170 169 167 163 165 165 163 156 161
144 149 151 152 156 159 160 163 162 167 165 167 176 163 179 213 247 261 253 263 199 191 171 171 174 191 187 180 170 179 179 184 185 193 177 172 173 169 169 163 157 154 156
146 148 154 158 160 164 163 160 167 165 172 171 173 170 201 227 239 189 176 138 142 148 160 157 155 164 161 165 154 165 170 183 199 222 186 181 173 176 171 167 168 172 166
151 153 150 154 159 163 157 169 166 169 163 159 158 188 193 164 155 166 161 155 143 152 157 158 160 168 162 170 168 158 159 164 174 174 190 179 177 175 173 174 174 174 168
155 158 163 163 164 163 161 173 172 173 172 165 158 176 164 154 155 165 155 182 169 168 174 180 178 171 171 151 159 161 156 155 147 140 176 171 174 173 178 182 174 169 161
148 140 148 162 161 165 169 172 177 174 163 156 155 158 159 156 156 166 177 198 193 179 164 169 173 169 154 153 170 166 160 163 168 152 145 158 170 178 177 185 171 171 170
132 135 151 155 156 168 172 174 166 161 162 161 154 144 127 128 154 155 163 181 173 173 165 161 155 152 152 163 168 172 175 163 165 157 151 157 167 177 177 182 193 192 188
140 149 151 144 151 160 174 175 172 168 176 179 170 143 147 136 133 145 151 143 155 164 165 164 150 150 154 161 168 169 175 168 171 167 165 167 172 177 185 190 189 194 207
142 145 143 149 155 160 166 174 184 185 187 171 168 164 160 151 146 143 151 159 164 167 162 156 150 154 157 151 159 167 175 176 176 169 169 170 173 166 176 186 184 185 177
141 142 147 155 154 161 172 192 200 201 192 179 176 178 178 161 152 140 149 158 168 155 150 149 148 144 144 144 149 159 165 170 175 172 171 174 174 173 177 181 180 171 180
139 145 151 154 158 167 172 167 172 167 168 167 179 179 191 157 143 134 125 134 141 146 147 147 153 146 140 139 143 154 161 170 168 169 168 164 173 172 165 164 164 173 199
142 160 150 153 134 143 154 145 132 134 127 150 158 158 149 153 154 150 135 127 145 147 149 145 150 151 147 147 156 160 162 164 171 177 179 173 175 166 163 166 176 194 195
154 160 162 157 152 144 128 133 141 133 141 144 150 146 157 151 153 142 128 130 133 142 152 152 153 153 155 151 150 149 153 151 150 148 149 156 163 170 182 196 208 196 199
155 161 163 167 153 148 141 141 129 133 141 142 146 143 144 143 145 142 133 131 130 135 142 155 163 157 156 155 146 147 147 157 166 174 173 173 177 178 186 188 193 202 219
166 160 145 144 141 142 140 151 139 137 147 145 144 141 141 138 137 138 136 125 123 122 132 151 162 157 149 155 161 164 173 172 171 177 181 191 189 195 198 201 221 222 226
142 135 155 148 151 134 146 151 142 137 125 139 149 151 150 152 148 150 149 147 149 155 131 131 137 152 156 160 176 170 172 170 185 194 198 198 201 213 212 222 230 232 239
148 129 166 171 144 143 153 137 147 146 135 146 145 153 148 151 151 157 163 157 143 154 165 159 155 155 163 167 179 191 195 195 198 200 211 210 198 207 220 233 246 248 251
158 162 175 161 155 162 146 137 142 145 140 146 130 127 118 125 131 116 133 139 135 150 149 163 160 157 166 182 198 213 205 201 208 223 222 221 227 235 236 245 253 257 260
161 172 190 160 175 155 163 161 157 151 157 141 137 137 134 133 145 153 123 132 203 225 199 208 196 205 211 215 213 220 225 240 223 241 238 243 252 254 255 255 257 261 264
168 176 176 156 157 158 125 106 166 153 144 135 136 137 128 138 132 144 129 145 143 152 183 136 130 154 163 183 189 204 213 225 234 219 233 240 254 261 256 257 257 264 273
161 120 123 145 111 112 133 120 125 140 138 136 118 121 138 121 123 123 126 125 126 141 152 166 184 176 212 219 203 224 236 240 241 253 265 258 255 252 263 269 284 285 289
133 142 150 145 125 127 135 131 131 133 135 139 138 135 141 144 142 141 146 151 156 163 156 159 183 202 229 241 246 243 243 247 256 256 257 261 270 273 273 272 271 273 281
Wind_Speed_850mb
43 44 47 51 49 48 51 46 49 42 39 40 33 28 26 27 22 17 23 28 30 31 28 32 28 21 19 22 25 21 23 22 24 24 23 32 33 35 35 30 37 39 40
49 50 53 55 56 57 49 50 48 47 39 35 28 22 21 20 19 23 24 23 26 28 33 29 30 26 19 22 30 23 15 24 29 37 37 37 33 31 34 40 42 39 41
54 56 56 52 52 53 50 43 42 36 34 31 28 23 21 21 17 12 14 17 27 26 26 25 22 22 20 21 28 23 15 27 31 37 45 42 40 34 41 38 40 42 40
52 55 53 53 52 50 44 41 39 35 32 28 25 26 22 15 8 8 14 18 24 26 28 24 26 23 21 24 28 23 22 26 35 40 41 43 35 30 39 42 43 44 49
56 54 52 50 47 43 40 37 30 31 29 29 26 22 15 14 17 19 20 15 18 20 20 24 25 22 18 21 27 28 24 32 45 36 41 41 35 37 45 47 49 47 48
55 50 46 44 42 39 36 31 33 33 33 28 26 21 18 14 14 12 10 2 7 11 22 25 26 12 17 22 17 20 24 35 38 33 44 42 42 48 47 53 54 57 61
50 45 42 38 34 33 35 37 35 32 31 23 21 21 20 12 5 6 7 7 9 13 20 24 20 14 18 21 17 19 28 28 12 16 45 46 50 48 52 48 49 56 66
43 43 43 37 37 34 38 33 35 30 29 25 23 18 10 5 8 12 11 8 15 16 21 27 18 20 21 23 22 24 26 20 10 11 34 38 39 44 47 51 62 60 58
44 46 38 31 39 35 38 35 32 33 24 24 16 13 6 8 12 14 13 10 16 15 19 23 22 18 20 27 28 32 30 26 16 11 21 30 34 39 55 50 60 62 67
43 42 33 23 35 40 33 32 27 22 22 20 17 13 6 9 14 14 15 8 15 15 17 27 22 19 21 34 28 31 35 34 26 21 33 32 35 41 44 39 56 74 72
44 31 31 46 32 41 36 31 28 25 22 23 19 12 9 9 13 11 9 10 14 17 21 28 24 22 34 35 30 30 33 35 29 28 38 39 40 44 51 43 48 52 54
37 34 37 25 40 35 29 30 30 25 29 23 17 17 11 12 11 12 12 14 16 13 21 28 29 39 37 34 30 26 27 36 32 38 40 48 46 45 36 36 48 46 38
40 38 36 30 46 31 27 25 28 28 26 23 15 13 15 15 11 12 15 15 17 18 22 35 36 39 32 26 22 23 30 33 31 41 44 51 44 34 35 33 34 27 34
40 38 38 34 25 24 22 23 21 21 26 26 25 22 16 18 14 16 16 17 13 23 33 41 38 38 36 30 28 24 31 33 35 41 43 39 42 35 37 36 37 46 44
43 37 36 30 29 26 20 19 17 18 19 21 25 17 14 24 17 18 14 19 27 38 39 39 42 39 41 38 31 26 26 27 31 40 44 45 45 43 44 41 39 39 31
42 38 35 29 25 17 19 23 20 18 17 18 16 14 14 23 20 25 20 18 30 38 39 43 39 42 37 35 27 25 27 30 30 36 39 44 51 53 43 35 33 34 34
43 36 44 33 36 30 23 20 25 22 17 20 20 16 14 30 21 29 23 33 32 29 35 38 40 38 35 35 27 29 33 36 42 45 42 45 43 38 35 32 30 36 27
38 32 33 44 40 36 31 24 18 23 29 30 21 17 30 30 27 32 33 40 34 27 22 26 32 35 38 36 28 28 28 36 36 37 36 36 35 31 28 25 21 21 20
33 24 31 40 38 32 28 28 28 29 24 31 31 34 36 30 32 32 41 36 29 26 22 22 25 33 34 27 28 31 26 31 30 31 33 29 34 34 33 29 34 30 32
28 35 44 41 38 30 33 25 27 31 21 31 33 36 39 36 39 39 36 26 21 21 20 22 24 30 29 28 24 21 24 23 23 25 27 27 34 37 36 42 27 29 39
38 31 40 32 29 37 44 35 34 31 30 31 18 26 32 34 35 38 32 32 23 23 23 19 21 20 22 27 29 26 20 25 19 18 19 22 36 31 30 36 32 35 37
37 35 28 43 40 42 39 39 40 42 40 32 29 36 33 21 30 32 34 30 32 26 15 20 23 23 21 19 17 19 17 15 18 18 20 19 22 30 34 39 39 41 45
30 39 23 24 47 36 39 42 47 49 47 34 46 44 40 25 11 5 9 11 17 19 21 22 31 30 34 35 31 30 36 37 34 22 27 30 30 33 32 37 40 43 47
31 32 30 29 44 46 45 44 58 53 41 37 32 32 32 24 20 26 22 29 34 31 34 15 20 22 25 32 24 19 17 19 16 22 31 31 29 39 41 37 41 44 46
31 50 61 49 61 60 45 52 75 63 52 55 62 56 48 41 39 30 24 22 25 32 27 20 15 9 13 15 18 20 21 21 27 30 33 30 30 34 32 28 26 31 33
37 39 44 42 50 59 65 64 63 67 64 59 56 62 58 51 45 43 38 33 31 25 22 17 14 10 11 14 17 24 28 29 32 35 39 48 51 51 52 53 52 52 54
Wind_Direction_850mb
184 182 182 179 179 179 172 174 171 171 174 173 171 178 191 208 217 218 209 220 231 240 233 230 221 221 217 219 215 223 213 216 200 163 162 161 153 158 171 168 169 170 165
173 173 170 164 168 165 160 165 169 170 166 171 177 187 187 203 216 232 235 238 242 241 236 234 224 250 222 216 207 215 224 207 190 163 154 158 161 162 156 160 169 168 160
171 167 162 164 160 167 167 166 162 161 160 170 175 181 191 191 210 260 257 243 247 249 238 234 249 221 220 213 206 202 197 174 169 176 157 159 165 170 168 166 165 165 159
155 154 154 153 156 158 158 153 159 162 167 169 166 176 188 201 205 254 250 253 254 235 235 240 202 206 221 207 196 189 189 182 171 178 173 169 166 168 170 164 159 163 156
143 148 150 153 153 154 155 160 158 161 161 165 164 168 161 181 209 243 265 262 244 233 234 207 187 194 210 195 194 190 185 174 181 181 170 169 167 163 165 165 163 156 161
144 149 151 152 156 159 160 163 162 167 165 167 176 163 179 213 247 261 253 263 199 191 171 171 174 191 187 180 170 179 179 184 185 193 177 172 173 169 169 163 157 154 156
146 148 154 158 160 164 163 160 167 165 172 171 173 170 201 227 239 189 176 138 142 148 160 157 155 164 161 165 154 165 170 183 199 222 186 181 173 176 171 167 168 172 166
151 153 150 154 159 163 157 169 166 169 163 159 158 188 193 164 155 166 161 155 143 152 157 158 160 168 162 170 168 158 159 164 174 174 190 179 177 175 173 174 174 174 168
155 158 163 163 164 163 161 173 172 173 172 165 158 176 164 154 155 165 155 182 169 168 174 180 178 171 171 151 159 161 156 155 147 140 176 171 174 173 178 182 174 169 161
148 140 148 162 161 165 169 172 177 174 163 156 155 158 159 156 156 166 177 198 193 179 164 169 173 169 154 153 170 166 160 163 168 152 145 158 170 178 177 185 171 171 170
132 135 151 155 156 168 172 174 166 161 162 161 154 144 127 128 154 155 163 181 173 173 165 161 155 152 152 163 168 172 175 163 165 157 151 157 167 177 177 182 193 192 188
140 149 151 144 151 160 174 175 172 168 176 179 170 143 147 136 133 145 151 143 155 164 165 164 150 150 154 161 168 169 175 168 171 167 165 167 172 177 185 190 189 194 207
142 145 143 149 155 160 166 174 184 185 187 171 168 164 160 151 146 143 151 159 164 167 162 156 150 154 157 151 159 167 175 176 176 169 169 170 173 166 176 186 184 185 177
141 142 147 155 154 161 172 192 200 201 192 179 176 178 178 161 152 140 149 158 168 155 150 149 148 144 144 144 149 159 165 170 175 172 171 174 174 173 177 181 180 171 180
139 145 151 154 158 167 172 167 172 167 168 167 179 179 191 157 143 134 125 134 141 146 147 147 153 146 140 139 143 154 161 170 168 169 168 164 173 172 165 164 164 173 199
142 160 150 153 134 143 154 145 132 134 127 150 158 158 149 153 154 150 135 127 145 147 149 145 150 151 147 147 156 160 162 164 171 177 179 173 175 166 163 166 176 194 195
154 160 162 157 152 144 128 133 141 133 141 144 150 146 157 151 153 142 128 130 133 142 152 152 153 153 155 151 150 149 153 151 150 148 149 156 163 170 182 196 208 196 199
155 161 163 167 153 148 141 141 129 133 141 142 146 143 144 143 145 142 133 131 130 135 142 155 163 157 156 155 146 147 147 157 166 174 173 173 177 178 186 188 193 202 219
166 160 145 144 141 142 140 151 139 137 147 145 144 141 141 138 137 138 136 125 123 122 132 151 162 157 149 155 161 164 173 172 171 177 181 191 189 195 198 201 221 222 226
142 135 155 148 151 134 146 151 142 137 125 139 149 151 150 152 148 150 149 147 149 155 131 131 137 152 156 160 176 170 172 170 185 194 198 198 201 213 212 222 230 232 239
148 129 166 171 144 143 153 137 147 146 135 146 145 153 148 151 151 157 163 157 143 154 165 159 155 155 163 167 179 191 195 195 198 200 211 210 198 207 220 233 246 248 251
158 162 175 161 155 162 146 137 142 145 140 146 130 127 118 125 131 116 133 139 135 150 149 163 160 157 166 182 198 213 205 201 208 223 222 221 227 235 236 245 253 257 260
161 172 190 160 175 155 163 161 157 151 157 141 137 137 134 133 145 153 123 132 203 225 199 208 196 205 211 215 213 220 225 240 223 241 238 243 252 254 255 255 257 261 264
168 176 176 156 157 158 125 106 166 153 144 135 136 137 128 138 132 144 129 145 143 152 183 136 130 154 163 183 189 204 213 225 234 219 233 240 254 261 256 257 257 264 273
161 120 123 145 111 112 133 120 125 140 138 136 118 121 138 121 123 123 126 125 126 141 152 166 184 176 212 219 203 224 236 240 241 253 265 258 255 252 263 269 284 285 289
133 142 150 145 125 127 135 131 131 133 135 139 138 135 141 144 142 141 146 151 156 163 156 159 183 202 229 241 246 243 243 247 256 256 257 261 270 273 273 272 271 273 281